[[{"header":{"parameterUnit":"m.s-1","parameterCategory":1,"la1":30.2991,"la2":30.254,"lo1":-89.0895,"lo2":-89.0444,"dy":0.0017,"dx":0.0017,"nx":28,"ny":28,"refTime":"2023-10-12T09:00:00:Z","depth":0,"parameterNumber":2,"parameterNumberName":"U-component_of_WINDS"},"data":[0,0,0,0,0,0,0,0,0,0,0,0,0,0,0,0,0,0,0,0,0,0,0,0,0,0,0,0,0,0,0,0,0,0,0,0,0,0,0,0,0,0,0,0,0,0,0,0,0,0,0,0,0,0,0,0,0,0,1.0632,1.0633,0,1.0734,1.0735,1.0736,1.0771,1.077,1.077,1.077,1.088,1.0883,1.0887,0,0,0,0,0,0,0,0,0,0,0,0,0,1.0475,1.0478,1.0632,1.0634,1.0635,1.0734,1.0735,1.0736,1.0771,1.077,1.077,1.0769,1.0879,1.0883,1.0887,0,0,0,0,0,0,0,0,0,0,0,0,0,1.0557,1.0479,1.0632,1.0664,1.0668,1.0733,1.0735,1.0737,1.0771,1.077,1.077,1.0769,1.0878,1.0883,1.0887,1.0931,0,0,1.0903,1.0905,0,0,0,0,0,0,0,0,1.0552,1.0563,1.0658,1.0662,1.0666,1.0739,1.072,1.0802,1.0771,1.0732,1.077,1.0769,1.0834,1.0843,1.0863,1.0936,1.0941,1.0903,1.0906,1.0908,1.091,0,0,0,0,0,0,0,1.0547,1.0559,1.0673,1.0659,1.0664,1.0675,1.0686,1.0736,1.0786,1.0735,1.0738,1.0749,1.0836,1.0858,1.0866,1.0943,1.0903,1.0908,1.0911,1.0913,1.1058,1.1059,0,0,0,0,0,0,1.0535,1.0554,1.0669,1.0676,1.0606,1.0679,1.0691,1.0716,1.0785,1.0795,1.075,1.075,1.085,1.086,1.087,1.0927,1.0908,1.0913,1.0916,1.1057,1.1058,1.1059,0,0,0,0,0,0,1.0531,1.0545,1.0665,1.0615,1.0632,1.0682,1.071,1.0719,1.0741,1.0796,1.0806,1.0763,1.085,1.0863,1.0916,1.0931,1.0915,1.092,1.1056,1.1058,1.1059,1.1039,0,0,0,0,0,0,1.0527,1.0543,1.0559,1.0615,1.0634,1.0707,1.0711,1.0721,1.0748,1.075,1.0811,1.082,1.0851,1.0908,1.092,1.0938,1.0924,1.1055,1.1057,1.1058,1.1039,1.104,1.104,0,0,0,0,0,1.0521,1.055,1.0559,1.0573,1.0654,1.0708,1.0719,1.0751,1.0749,1.0767,1.0802,1.0818,1.0927,1.0913,1.0927,1.0946,1.1054,1.1056,1.1058,1.1038,1.1039,1.104,0,0,0,0,0,0,1.0496,1.0558,1.0569,1.0617,1.0656,1.0713,1.0736,1.0751,1.0794,1.0794,1.0835,1.0848,1.0898,1.0927,1.0911,1.0993,1.0992,1.0997,1.0972,1.0973,1.0974,1.0966,1.0928,0,0,0,0,0,1.0496,1.0532,1.0585,1.0623,1.0642,1.0685,1.071,1.0731,1.0775,1.0792,1.0832,1.0875,1.092,1.0948,1.0992,1.1043,1.1058,1.1063,1.1064,1.1064,1.1069,1.11,1.1103,1.1066,1.1066,1.1066,0,0,1.0496,1.0535,1.0555,1.0619,1.0652,1.069,1.0699,1.074,1.0769,1.0799,1.0851,1.0881,1.0933,1.0985,1.101,1.1011,1.1082,1.1067,1.1067,1.1071,1.1102,1.1105,1.1108,1.1067,1.1067,1.1067,0,0,1.0517,1.0549,1.0584,1.0617,1.0666,1.0695,1.0703,1.0758,1.0779,1.0831,1.0854,1.0892,1.0966,1.1002,1.103,1.1065,1.1082,1.1079,1.1083,1.1113,1.1116,1.1119,1.1133,1.1137,1.1082,1.1082,1.1082,0,1.0512,1.0569,1.0601,1.064,1.0668,1.0694,1.0732,1.0763,1.0825,1.0845,1.0844,1.0939,1.0976,1.1037,1.1046,1.1067,1.108,1.1072,1.1112,1.1116,1.1119,1.1133,1.1137,1.1082,1.1082,1.1082,1.1082,0,1.0562,1.0601,1.0624,1.0681,1.0711,1.0749,1.0789,1.0816,1.0835,1.0865,1.0919,1.0963,1.1017,1.1033,1.1053,1.1098,1.1097,1.1104,1.1104,1.1121,1.1135,1.114,1.1081,1.1081,1.1081,1.1081,0,0,1.057,1.0643,1.0651,1.0678,1.0735,1.0767,1.0807,1.0857,1.0881,1.0923,1.0959,1.1022,1.1029,1.1061,1.1085,1.1111,1.1137,1.1115,1.1117,1.1118,1.1191,1.1186,1.1192,1.1148,1.1149,1.115,1.1187,0,1.0599,1.0669,1.0699,1.0757,1.0795,1.0821,1.0856,1.0896,1.0925,1.0963,1.0996,1.104,1.1045,1.1065,1.1091,1.1128,1.1152,1.1126,1.1184,1.1186,1.1171,1.1198,1.1193,1.1226,1.1193,1.1194,1.1194,0,1.0643,1.0683,1.0743,1.0796,1.0813,1.0844,1.0893,1.0928,1.0975,1.0994,1.1029,1.1052,1.1098,1.1094,1.1158,1.1139,1.1166,1.1187,1.1189,1.1197,1.1192,1.1208,1.1237,1.1243,1.1203,1.1202,1.1202,0,1.0644,1.0713,1.0759,1.0781,1.0843,1.0864,1.0892,1.0937,1.0966,1.1009,1.1029,1.1078,1.1105,1.1144,1.118,1.1173,1.1242,1.1241,1.1261,1.126,1.1275,1.1274,1.131,1.129,1.129,1.129,1.1289,0,1.0674,1.0711,1.076,1.0788,1.0831,1.0866,1.0907,1.0937,1.0977,1.1014,1.104,1.1074,1.1119,1.1159,1.1188,1.1238,1.125,1.1269,1.1277,1.1267,1.1265,1.1286,1.1285,1.1291,1.1291,1.129,1.129,0,1.0683,1.0718,1.0769,1.0823,1.0838,1.0867,1.0914,1.0944,1.0974,1.1019,1.1032,1.108,1.1129,1.1168,1.1233,1.1252,1.1305,1.1313,1.1289,1.1293,1.1311,1.1309,1.1363,1.1373,1.1344,1.1345,1.1345,0,1.07,1.0729,1.0785,1.081,1.0837,1.0877,1.0905,1.0942,1.0971,1.1026,1.105,1.11,1.1142,1.1219,1.1261,1.1311,1.1321,1.1337,1.1329,1.1319,1.1323,1.1321,1.1325,1.1338,1.1338,1.1338,1.1338,0,1.0728,1.0744,1.0783,1.0828,1.0861,1.09,1.0939,1.0958,1.1002,1.1034,1.1083,1.1115,1.1181,1.1231,1.1285,1.1316,1.1335,1.134,1.1347,1.1339,1.1324,1.1333,1.1292,1.1339,1.1339,1.1339,1.1339,1.1339,1.0743,1.077,1.0813,1.0857,1.0889,1.0925,1.0956,1.0989,1.1029,1.1084,1.1103,1.1154,1.1201,1.1276,1.1307,1.1349,1.1351,1.1361,1.1365,1.1367,1.1366,1.1316,1.1359,1.1359,1.1359,1.1359,1.1359,0,1.0773,1.0802,1.0841,1.0894,1.0929,1.0941,1.0985,1.1014,1.1057,1.1099,1.1139,1.1196,1.1245,1.129,1.1342,1.1367,1.1377,1.138,1.1379,1.1386,1.1361,1.1349,1.1371,1.1371,1.1371,1.1371,1.1371,1.1371,1.0793,1.0839,1.0859,1.0923,1.0953,1.1001,1.1025,1.1059,1.1092,1.1154,1.1194,1.1222,1.1266,1.1322,1.1368,1.138,1.1399,1.1399,1.1414,1.139,1.1388,1.1386,1.1376,1.1402,1.1402,1.1436,1.1436,1.1436]},{"header":{"parameterUnit":"m.s-1","parameterCategory":1,"la1":30.2991,"la2":30.254,"lo1":-89.0895,"lo2":-89.0444,"dy":0.0017,"dx":0.0017,"nx":28,"ny":28,"refTime":"2023-10-12T09:00:00:Z","depth":0,"parameterNumber":3,"parameterNumberName":"V-component_of_WINDS"},"data":[0,0,0,0,0,0,0,0,0,0,0,0,0,0,0,0,0,0,0,0,0,0,0,0,0,0,0,0,0,0,0,0,0,0,0,0,0,0,0,0,0,0,0,0,0,0,0,0,0,0,0,0,0,0,0,0,0,0,-0.9609,-0.9611,0,-0.9787,-0.9789,-0.9791,-0.9876,-0.9876,-0.9876,-0.9876,-1.0059,-1.0063,-1.0068,0,0,0,0,0,0,0,0,0,0,0,0,0,-0.9346,-0.935,-0.9609,-0.9611,-0.9614,-0.9787,-0.9789,-0.9792,-0.9876,-0.9876,-0.9876,-0.9876,-1.0057,-1.0063,-1.0069,0,0,0,0,0,0,0,0,0,0,0,0,0,-0.9485,-0.9351,-0.9609,-0.9677,-0.9685,-0.9786,-0.9789,-0.9792,-0.9876,-0.9876,-0.9876,-0.9876,-1.0055,-1.0062,-1.0069,-1.0117,0,0,-1.0092,-1.0095,0,0,0,0,0,0,0,0,-0.9477,-0.9495,-0.9665,-0.9672,-0.9681,-0.9809,-0.9763,-0.9901,-0.9876,-0.9804,-0.9876,-0.9876,-0.9976,-0.999,-1.0023,-1.0126,-1.0133,-1.0093,-1.0097,-1.01,-1.0102,0,0,0,0,0,0,0,-0.9467,-0.9488,-0.968,-0.9667,-0.9677,-0.9699,-0.9719,-0.979,-0.9888,-0.981,-0.9816,-0.9836,-0.998,-1.0016,-1.0028,-1.0136,-1.0092,-1.0099,-1.0104,-1.0107,-1.029,-1.029,0,0,0,0,0,0,-0.9446,-0.9479,-0.9674,-0.9685,-0.9577,-0.9704,-0.9726,-0.9768,-0.9888,-0.9906,-0.9836,-0.984,-1.0003,-1.0019,-1.0035,-1.0101,-1.01,-1.0107,-1.0111,-1.029,-1.029,-1.0291,0,0,0,0,0,0,-0.944,-0.9463,-0.9667,-0.9584,-0.9612,-0.9709,-0.9755,-0.9772,-0.9808,-0.9907,-0.9926,-0.9854,-1.0004,-1.0025,-1.0097,-1.0109,-1.0111,-1.0117,-1.0289,-1.029,-1.029,-1.0232,0,0,0,0,0,0,-0.9433,-0.946,-0.9479,-0.9584,-0.9616,-0.9725,-0.9756,-0.9775,-0.982,-0.9826,-0.9929,-0.9946,-1.0005,-1.0085,-1.0104,-1.0119,-1.0123,-1.0288,-1.0289,-1.029,-1.0233,-1.023,-1.0228,0,0,0,0,0,-0.9423,-0.9455,-0.9479,-0.9502,-0.9641,-0.9725,-0.9744,-0.9811,-0.982,-0.9841,-0.9905,-0.9943,-1.0104,-1.0092,-1.0114,-1.0131,-1.0288,-1.0289,-1.029,-1.0234,-1.0231,-1.0228,0,0,0,0,0,0,-0.9348,-0.9469,-0.9498,-0.9565,-0.9634,-0.9739,-0.9767,-0.9805,-0.9873,-0.9876,-0.9956,-0.9979,-1.0045,-1.0095,-1.0079,-1.0185,-1.02,-1.0205,-1.015,-1.0147,-1.0145,-1.0132,-1.0129,0,0,0,0,0,-0.9339,-0.9397,-0.9501,-0.9549,-0.9583,-0.9668,-0.9708,-0.9754,-0.9829,-0.9859,-0.9929,-1.0,-1.0068,-1.011,-1.0177,-1.024,-1.0266,-1.0263,-1.026,-1.0258,-1.0262,-1.0302,-1.0303,-1.0294,-1.0294,-1.0294,0,0,-0.9322,-0.9396,-0.9427,-0.9536,-0.9596,-0.9655,-0.9693,-0.9753,-0.9799,-0.9868,-0.9942,-0.9995,-1.0081,-1.0149,-1.0183,-1.0193,-1.027,-1.0259,-1.0256,-1.0262,-1.0303,-1.0304,-1.0305,-1.0295,-1.0294,-1.0294,0,0,-0.9321,-0.9382,-0.9431,-0.9489,-0.9579,-0.9636,-0.9647,-0.9748,-0.9786,-0.9861,-0.9915,-0.997,-1.0083,-1.0143,-1.0188,-1.0212,-1.0251,-1.0232,-1.0219,-1.0257,-1.0258,-1.0259,-1.027,-1.0273,-1.0235,-1.0235,-1.0235,0,-0.9289,-0.938,-0.9451,-0.951,-0.9557,-0.9623,-0.9674,-0.9727,-0.9834,-0.9866,-0.9875,-1.0021,-1.0082,-1.0168,-1.0174,-1.0207,-1.0224,-1.0221,-1.0252,-1.0254,-1.0256,-1.0267,-1.0271,-1.0232,-1.0233,-1.0233,-1.0233,0,-0.9337,-0.9399,-0.9428,-0.953,-0.9581,-0.9635,-0.9715,-0.9758,-0.98,-0.9856,-0.9933,-1.001,-1.0095,-1.0118,-1.0159,-1.021,-1.0214,-1.0236,-1.0253,-1.0253,-1.0265,-1.027,-1.0229,-1.023,-1.023,-1.0231,0,0,-0.9294,-0.9435,-0.9445,-0.9493,-0.9598,-0.9648,-0.9706,-0.979,-0.9826,-0.9897,-0.995,-1.0045,-1.0067,-1.0118,-1.0167,-1.02,-1.0217,-1.022,-1.0223,-1.0218,-1.0281,-1.0264,-1.0268,-1.0243,-1.0244,-1.0245,-1.0275,0,-0.9309,-0.9417,-0.9483,-0.9564,-0.9624,-0.9688,-0.9739,-0.9809,-0.9864,-0.9924,-0.9984,-1.0051,-1.0074,-1.0106,-1.0142,-1.0207,-1.0231,-1.0206,-1.0294,-1.0296,-1.0272,-1.0274,-1.0257,-1.0281,-1.028,-1.028,-1.0281,0,-0.9342,-0.9413,-0.95,-0.96,-0.9627,-0.9672,-0.9755,-0.9811,-0.9893,-0.993,-0.9988,-1.0037,-1.0103,-1.0113,-1.0206,-1.0187,-1.0227,-1.0265,-1.0267,-1.028,-1.0289,-1.0289,-1.029,-1.0295,-1.0289,-1.0288,-1.0287,0,-0.9305,-0.9422,-0.949,-0.9529,-0.9646,-0.9677,-0.9727,-0.9809,-0.9855,-0.9928,-0.996,-1.0039,-1.0082,-1.0143,-1.0213,-1.0214,-1.0299,-1.0315,-1.0334,-1.0332,-1.035,-1.0349,-1.036,-1.0372,-1.0372,-1.0372,-1.0372,0,-0.9316,-0.9367,-0.9475,-0.9517,-0.9577,-0.9653,-0.9711,-0.9767,-0.9839,-0.9894,-0.9954,-1.0004,-1.0092,-1.0154,-1.0209,-1.0279,-1.0297,-1.0331,-1.0345,-1.0327,-1.0323,-1.0355,-1.0356,-1.0373,-1.0373,-1.0373,-1.0372,0,-0.9285,-0.9359,-0.9438,-0.9543,-0.9571,-0.9611,-0.9702,-0.9746,-0.9804,-0.9873,-0.9894,-0.9985,-1.0061,-1.0136,-1.0238,-1.0275,-1.0345,-1.0363,-1.0317,-1.0326,-1.0341,-1.034,-1.0376,-1.0386,-1.0388,-1.0388,-1.0388,0,-0.9289,-0.933,-0.944,-0.9481,-0.9531,-0.9596,-0.9645,-0.9721,-0.977,-0.9867,-0.99,-0.998,-1.0049,-1.0167,-1.0243,-1.0322,-1.0344,-1.0351,-1.0356,-1.0337,-1.0347,-1.0344,-1.035,-1.0349,-1.0349,-1.0348,-1.0348,0,-0.9288,-0.9323,-0.939,-0.9471,-0.9527,-0.9595,-0.9664,-0.9695,-0.9785,-0.9837,-0.9915,-0.9969,-1.0074,-1.0154,-1.0242,-1.0295,-1.0337,-1.0346,-1.0355,-1.0337,-1.031,-1.0328,-1.0313,-1.0345,-1.0345,-1.0346,-1.0346,-1.0346,-0.9276,-0.9317,-0.9401,-0.9475,-0.9536,-0.96,-0.9647,-0.9712,-0.9779,-0.987,-0.9912,-0.9991,-1.0074,-1.0197,-1.025,-1.0314,-1.0325,-1.0337,-1.0341,-1.0343,-1.034,-1.0298,-1.033,-1.033,-1.033,-1.033,-1.0331,0,-0.928,-0.9338,-0.9405,-0.9501,-0.956,-0.9594,-0.9674,-0.9721,-0.979,-0.9864,-0.9931,-1.0022,-1.0101,-1.0183,-1.0266,-1.0302,-1.0324,-1.0322,-1.0321,-1.0333,-1.0324,-1.0309,-1.0303,-1.0303,-1.0303,-1.0303,-1.0303,-1.0303,-0.9289,-0.9361,-0.9406,-0.9509,-0.9567,-0.9646,-0.9689,-0.9749,-0.9808,-0.9908,-0.9974,-1.0027,-1.0105,-1.0195,-1.0269,-1.0291,-1.032,-1.0313,-1.0341,-1.0331,-1.0333,-1.0335,-1.0321,-1.0318,-1.0318,-1.0345,-1.0345,-1.0345]}]]